Total_Precipitation_Accumulation
0.02 0.06 0.11 0.17 0.16 0.11 0.06 0.05 0.06 0.07 0.12 0.19 0.34 0.44 0.46 0.44 0.44 0.38 0.27 0.24 0.21 0.21 0.22 0.24 0.28 0.32 0.39 0.51 0.52 0.54 0.66 0.76 0.81 0.79 0.81 0.85 0.88 0.88 0.94 0.94 0.94 1.05 1.09 1.07
0.03 0.05 0.08 0.10 0.13 0.09 0.06 0.05 0.05 0.06 0.13 0.25 0.40 0.46 0.48 0.42 0.40 0.36 0.33 0.28 0.26 0.26 0.28 0.26 0.29 0.36 0.43 0.52 0.59 0.71 0.97 1.08 1.09 1.13 1.14 1.12 1.10 1.04 1.10 1.18 1.29 1.30 1.27 1.23
0.05 0.07 0.08 0.13 0.11 0.10 0.08 0.07 0.07 0.10 0.19 0.27 0.38 0.53 0.59 0.50 0.38 0.36 0.33 0.34 0.34 0.36 0.41 0.38 0.39 0.43 0.45 0.49 0.60 0.76 0.94 1.07 1.16 1.20 1.22 1.26 1.27 1.28 1.28 1.33 1.37 1.39 1.41 1.39
0.10 0.10 0.17 0.15 0.12 0.13 0.12 0.12 0.15 0.23 0.31 0.34 0.38 0.44 0.48 0.40 0.38 0.40 0.39 0.43 0.47 0.48 0.52 0.52 0.52 0.51 0.57 0.69 0.79 0.89 0.99 1.09 1.24 1.29 1.34 1.36 1.32 1.26 1.24 1.24 1.22 1.20 1.19 1.16
0.21 0.19 0.18 0.16 0.19 0.21 0.20 0.24 0.27 0.37 0.48 0.51 0.50 0.49 0.57 0.50 0.46 0.45 0.47 0.49 0.54 0.59 0.61 0.66 0.71 0.70 0.70 0.81 0.95 1.06 1.12 1.24 1.34 1.41 1.49 1.44 1.32 1.25 1.17 1.14 1.06 0.99 0.96 0.98
0.32 0.34 0.33 0.25 0.29 0.28 0.30 0.49 0.46 0.51 0.62 0.70 0.70 0.84 0.88 0.66 0.60 0.54 0.49 0.52 0.56 0.65 0.70 0.74 0.84 0.87 0.86 0.90 0.96 1.04 1.09 1.17 1.24 1.31 1.44 1.47 1.39 1.33 1.28 1.26 1.16 1.10 1.05 1.02
0.41 0.43 0.38 0.35 0.33 0.34 0.59 0.79 0.73 0.68 0.68 0.77 0.88 0.81 0.75 0.62 0.60 0.56 0.49 0.49 0.52 0.59 0.69 0.74 0.82 0.89 0.95 0.94 0.91 0.92 0.90 0.88 0.96 1.10 1.22 1.27 1.30 1.29 1.34 1.33 1.28 1.15 1.01 0.95
0.53 0.66 0.73 0.52 0.43 0.58 0.80 0.80 0.86 0.77 0.73 0.78 0.83 0.85 0.78 0.69 0.61 0.53 0.44 0.46 0.51 0.55 0.61 0.69 0.79 0.93 1.02 0.98 0.93 0.92 0.93 0.94 0.99 1.06 1.05 1.03 1.09 1.12 1.19 1.25 1.23 1.13 0.98 0.85
0.76 0.88 0.81 0.60 0.59 0.64 0.66 0.79 0.81 0.76 0.76 0.74 0.73 0.73 0.67 0.55 0.50 0.49 0.43 0.40 0.39 0.43 0.51 0.63 0.79 0.94 1.05 1.03 1.07 1.06 1.04 1.06 1.09 1.10 1.09 1.09 1.08 1.08 1.08 1.05 0.98 0.90 0.81 0.81
0.92 1.02 0.87 0.72 0.65 0.65 0.69 0.73 0.74 0.72 0.76 0.75 0.68 0.61 0.57 0.50 0.42 0.41 0.38 0.33 0.33 0.35 0.42 0.53 0.61 0.70 0.84 0.88 0.96 1.05 1.03 0.95 0.87 0.86 0.87 0.90 0.95 0.95 0.96 0.93 0.88 0.83 0.78 0.79
1.06 1.21 1.12 0.95 0.77 0.70 0.77 0.78 0.81 0.80 0.74 0.67 0.65 0.67 0.68 0.59 0.44 0.34 0.33 0.36 0.38 0.39 0.43 0.47 0.53 0.58 0.66 0.76 0.87 1.02 1.07 0.99 0.92 0.87 0.85 0.84 0.87 0.91 0.87 0.85 0.79 0.72 0.70 0.76
1.16 1.15 1.18 1.11 0.86 0.80 0.86 0.91 0.89 0.81 0.74 0.68 0.68 0.66 0.58 0.50 0.40 0.33 0.35 0.42 0.47 0.49 0.49 0.47 0.49 0.56 0.62 0.72 0.85 1.00 1.02 0.92 0.88 0.87 0.87 0.86 0.83 0.85 0.86 0.74 0.72 0.67 0.68 0.70
0.87 1.00 1.03 0.96 0.87 0.84 0.88 0.92 0.95 0.89 0.75 0.68 0.63 0.59 0.51 0.49 0.46 0.40 0.38 0.41 0.47 0.52 0.48 0.44 0.44 0.48 0.53 0.66 0.84 0.96 0.97 0.93 0.88 0.85 0.88 0.87 0.84 0.83 0.88 0.80 0.62 0.55 0.54 0.52
0.89 0.92 1.01 0.94 0.90 0.88 0.93 1.01 1.01 0.91 0.79 0.70 0.61 0.55 0.52 0.51 0.51 0.52 0.52 0.57 0.56 0.49 0.41 0.38 0.38 0.40 0.45 0.54 0.72 0.88 0.91 0.95 0.92 0.87 0.84 0.80 0.78 0.78 0.78 0.80 0.73 0.61 0.49 0.41
0.86 0.80 0.87 0.86 0.87 0.93 1.02 0.97 0.92 0.91 0.80 0.68 0.58 0.51 0.46 0.45 0.49 0.55 0.62 0.68 0.58 0.47 0.42 0.38 0.36 0.36 0.39 0.46 0.55 0.65 0.67 0.66 0.64 0.65 0.67 0.67 0.64 0.61 0.59 0.60 0.63 0.68 0.58 0.40
0.71 0.72 0.71 0.78 0.83 0.84 0.91 0.91 0.82 0.79 0.73 0.67 0.59 0.53 0.48 0.45 0.47 0.51 0.58 0.60 0.56 0.50 0.46 0.41 0.41 0.38 0.35 0.38 0.42 0.45 0.44 0.48 0.42 0.37 0.39 0.44 0.47 0.48 0.48 0.51 0.58 0.67 0.62 0.45
0.70 0.71 0.66 0.71 0.75 0.74 0.68 0.71 0.71 0.69 0.66 0.65 0.61 0.53 0.46 0.44 0.51 0.57 0.56 0.50 0.44 0.39 0.37 0.36 0.37 0.36 0.34 0.35 0.35 0.34 0.30 0.29 0.27 0.21 0.25 0.35 0.41 0.42 0.42 0.49 0.56 0.65 0.60 0.42
0.67 0.66 0.59 0.54 0.54 0.59 0.58 0.58 0.61 0.60 0.60 0.56 0.49 0.44 0.40 0.41 0.49 0.58 0.52 0.44 0.38 0.34 0.29 0.26 0.25 0.26 0.29 0.28 0.26 0.26 0.24 0.23 0.22 0.20 0.27 0.32 0.32 0.38 0.48 0.57 0.62 0.67 0.61 0.47
0.57 0.53 0.48 0.44 0.39 0.40 0.43 0.44 0.52 0.52 0.47 0.43 0.40 0.38 0.35 0.34 0.37 0.43 0.38 0.37 0.36 0.31 0.24 0.18 0.19 0.19 0.22 0.19 0.19 0.22 0.25 0.24 0.22 0.24 0.30 0.30 0.32 0.41 0.54 0.61 0.63 0.65 0.63 0.62
0.46 0.39 0.36 0.33 0.30 0.29 0.31 0.34 0.33 0.32 0.30 0.27 0.28 0.28 0.29 0.29 0.29 0.33 0.31 0.31 0.31 0.25 0.19 0.15 0.14 0.16 0.18 0.16 0.15 0.18 0.21 0.23 0.22 0.22 0.24 0.28 0.34 0.38 0.44 0.49 0.51 0.54 0.56 0.58
0.37 0.32 0.30 0.30 0.30 0.26 0.22 0.21 0.20 0.21 0.21 0.18 0.19 0.21 0.23 0.24 0.22 0.27 0.35 0.35 0.29 0.21 0.18 0.18 0.15 0.14 0.14 0.15 0.17 0.18 0.22 0.24 0.24 0.24 0.23 0.25 0.30 0.36 0.42 0.46 0.51 0.51 0.52 0.55
0.36 0.29 0.27 0.28 0.29 0.27 0.22 0.18 0.16 0.16 0.16 0.17 0.16 0.15 0.16 0.18 0.20 0.24 0.32 0.35 0.30 0.29 0.20 0.16 0.13 0.13 0.13 0.12 0.14 0.19 0.22 0.26 0.29 0.32 0.32 0.30 0.33 0.40 0.46 0.47 0.49 0.49 0.52 0.55
0.35 0.31 0.29 0.28 0.26 0.25 0.22 0.19 0.16 0.14 0.14 0.15 0.15 0.16 0.16 0.16 0.19 0.24 0.27 0.26 0.27 0.32 0.25 0.20 0.17 0.14 0.12 0.11 0.16 0.22 0.23 0.24 0.28 0.31 0.33 0.32 0.32 0.35 0.40 0.40 0.46 0.49 0.51 0.55
0.36 0.33 0.29 0.24 0.22 0.24 0.25 0.23 0.19 0.16 0.16 0.15 0.15 0.16 0.17 0.18 0.20 0.20 0.22 0.24 0.26 0.27 0.24 0.25 0.21 0.17 0.16 0.16 0.22 0.25 0.26 0.26 0.26 0.26 0.26 0.25 0.26 0.30 0.39 0.42 0.42 0.41 0.43 0.47
0.39 0.36 0.28 0.24 0.24 0.24 0.24 0.24 0.24 0.20 0.16 0.16 0.15 0.16 0.18 0.22 0.28 0.31 0.29 0.27 0.27 0.25 0.25 0.26 0.23 0.23 0.22 0.24 0.25 0.25 0.26 0.30 0.32 0.30 0.28 0.29 0.33 0.38 0.41 0.38 0.34 0.32 0.33 0.38
0.42 0.39 0.33 0.28 0.24 0.23 0.22 0.25 0.28 0.27 0.23 0.22 0.22 0.22 0.23 0.25 0.30 0.35 0.37 0.35 0.32 0.28 0.28 0.27 0.24 0.23 0.23 0.25 0.29 0.31 0.31 0.34 0.36 0.37 0.37 0.38 0.44 0.46 0.37 0.28 0.25 0.27 0.29 0.32
0.42 0.38 0.35 0.31 0.26 0.23 0.23 0.25 0.29 0.32 0.32 0.32 0.32 0.33 0.36 0.40 0.44 0.44 0.40 0.36 0.31 0.31 0.31 0.27 0.23 0.20 0.18 0.19 0.21 0.22 0.24 0.29 0.35 0.42 0.45 0.44 0.43 0.41 0.33 0.26 0.24 0.25 0.31 0.33